OneWeb SL0323

operational
NORAD ID: 49106 Int'l Des: 2021-075 Owner: ONEWEBN Country: UK Constellation: oneweb
LEOCIRCULARPOLARONEWEB_TYPE

Über OneWeb SL0323

Beschreibung wird geladen...

Live-Position

3D-Globus wird geladen...

Nächste Überflüge

Höhenverlauf

Altitude vs Time

uPlot chart will show altitude changes over time

Zweizeiliger Elementsatz

1 49106U 21075AH 25259.95917784 -.00000212 00000-0 -62502-3 0 9993
2 49106 87.8908 44.9267 0002424 93.1793 266.9613 13.12441709198719
Epoch: 16. Sept. 2025 • Age: 15 hours

Aktueller Status

Höhe 1215.7 km
Geschwindigkeit 7.25 km/s
Subsatellitenpunkt 9.17°N, 157.16°W
Startdatum 21. Aug. 2021
Alter 4 years
Typ internet

Technische Details

Klassifizierung Payload
Masse 148.00 kg
Trockenmasse 140.00 kg
Gesamtmasse 148.00 kg
Länge 1.30 m
Durchmesser 1.00 m
Spannweite 5.00 m
Form Trapezoid+2 pan
Hersteller ONEWUS
Bus-Typ ARROW
Phasenstatus In Orbit
Besitzer/Staat ONEWEBN/UK

Große Konstellationen

Loading constellations...